TimeCDT,TemperatureF,Dew PointF,Humidity,Sea Level PressureIn,VisibilityMPH,Wind Direction,Wind SpeedMPH,Gust SpeedMPH,PrecipitationIn,Events,Conditions,WindDirDegrees,DateUTC
12:15 AM,78.6,47.3,33,30.04,10.0,Calm,Calm,-,N/A,,Clear,0,2013-07-15 05:15:00
12:35 AM,78.4,47.1,33,30.04,10.0,Calm,Calm,-,N/A,,Clear,0,2013-07-15 05:35:00
12:55 AM,78.8,47.7,33,30.04,10.0,Calm,Calm,-,N/A,,Clear,0,2013-07-15 05:55:00
1:15 AM,78.8,47.8,34,30.04,10.0,South,3.5,-,N/A,,Clear,170,2013-07-15 06:15:00
1:35 AM,78.4,48.0,34,30.04,10.0,South,4.6,-,N/A,,Clear,180,2013-07-15 06:35:00
1:55 AM,78.4,48.2,34,30.03,10.0,South,6.9,-,N/A,,Clear,180,2013-07-15 06:55:00
2:15 AM,78.4,48.0,34,30.02,10.0,WSW,3.5,-,N/A,,Clear,250,2013-07-15 07:15:00
2:35 AM,76.1,48.0,37,30.02,10.0,SW,4.6,-,N/A,,Clear,230,2013-07-15 07:35:00
2:55 AM,76.6,47.7,36,30.02,10.0,Calm,Calm,-,N/A,,Clear,0,2013-07-15 07:55:00
3:15 AM,75.2,47.3,37,30.02,10.0,NW,4.6,-,N/A,,Scattered Clouds,310,2013-07-15 08:15:00
3:35 AM,72.1,47.1,41,30.03,10.0,WNW,3.5,-,N/A,,Scattered Clouds,290,2013-07-15 08:35:00
3:55 AM,75.0,46.9,37,30.04,10.0,North,3.5,-,N/A,,Clear,360,2013-07-15 08:55:00
4:15 AM,72.7,46.8,40,30.06,10.0,North,12.7,-,N/A,,Clear,360,2013-07-15 09:15:00
4:35 AM,70.7,56.7,61,30.08,10.0,North,21.9,25.3,N/A,,Clear,10,2013-07-15 09:35:00
4:55 AM,68.7,57.6,67,30.10,10.0,North,18.4,25.3,N/A,,Mostly Cloudy,10,2013-07-15 09:55:00
5:15 AM,66.9,58.3,74,30.12,10.0,NNE,20.7,28.8,N/A,,Overcast,20,2013-07-15 10:15:00
5:35 AM,65.8,58.3,77,30.13,10.0,NNE,20.7,28.8,N/A,,Overcast,20,2013-07-15 10:35:00
5:55 AM,65.5,58.6,79,30.14,10.0,NNE,16.1,24.2,N/A,,Overcast,20,2013-07-15 10:55:00
6:15 AM,64.9,59.0,81,30.14,10.0,NNE,15.0,24.2,N/A,,Overcast,20,2013-07-15 11:15:00
6:35 AM,64.8,59.2,82,30.15,10.0,NE,13.8,18.4,N/A,,Overcast,40,2013-07-15 11:35:00
6:55 AM,64.4,59.2,83,30.14,10.0,NE,12.7,18.4,N/A,,Overcast,40,2013-07-15 11:55:00
7:15 AM,64.0,59.2,84,30.14,10.0,NE,13.8,18.4,N/A,,Overcast,50,2013-07-15 12:15:00
7:35 AM,63.9,59.4,85,30.15,10.0,NE,13.8,17.3,N/A,,Overcast,40,2013-07-15 12:35:00
7:55 AM,64.4,59.5,84,30.15,10.0,NE,10.4,-,N/A,,Overcast,40,2013-07-15 12:55:00
8:15 AM,64.2,59.9,86,30.15,10.0,NE,12.7,-,N/A,,Overcast,40,2013-07-15 13:15:00
8:35 AM,64.4,59.9,85,30.16,10.0,NNE,9.2,-,N/A,,Overcast,30,2013-07-15 13:35:00
8:55 AM,63.9,60.3,88,30.15,7.0,ENE,10.4,-,N/A,,Overcast,60,2013-07-15 13:55:00
9:15 AM,62.8,61.7,96,30.16,3.0,NE,9.2,-,N/A,,Overcast,40,2013-07-15 14:15:00
9:35 AM,62.8,62.1,97,30.16,2.5,NE,11.5,-,N/A,,Overcast,40,2013-07-15 14:35:00
9:55 AM,62.8,61.9,97,30.17,5.0,NE,11.5,-,N/A,,Overcast,40,2013-07-15 14:55:00
10:15 AM,62.8,61.7,96,30.17,5.0,NE,8.1,-,N/A,,Overcast,40,2013-07-15 15:15:00
10:35 AM,62.8,61.7,96,30.16,3.0,NE,6.9,-,N/A,,Overcast,40,2013-07-15 15:35:00
10:55 AM,64.0,61.7,92,30.17,7.0,NNE,10.4,-,N/A,,Overcast,30,2013-07-15 15:55:00
11:15 AM,63.9,61.5,92,30.18,7.0,NNE,11.5,-,N/A,,Overcast,30,2013-07-15 16:15:00
11:35 AM,65.3,61.2,86,30.17,10.0,NNE,6.9,-,N/A,,Overcast,30,2013-07-15 16:35:00
11:55 AM,65.5,61.3,86,30.18,10.0,NE,10.4,-,N/A,,Overcast,40,2013-07-15 16:55:00
12:15 PM,66.6,61.5,84,30.18,10.0,ENE,10.4,-,N/A,,Overcast,60,2013-07-15 17:15:00
12:35 PM,64.8,61.9,90,30.18,5.0,NE,10.4,-,N/A,,Overcast,40,2013-07-15 17:35:00
12:55 PM,64.4,61.9,92,30.19,5.0,NE,10.4,17.3,N/A,,Overcast,50,2013-07-15 17:55:00
1:15 PM,63.7,62.4,96,30.19,4.0,NE,12.7,-,N/A,,Overcast,40,2013-07-15 18:15:00
1:35 PM,65.3,61.2,86,30.19,10.0,NE,12.7,-,N/A,,Overcast,50,2013-07-15 18:35:00
1:55 PM,65.3,61.2,86,30.19,10.0,NE,13.8,-,N/A,,Overcast,50,2013-07-15 18:55:00
2:15 PM,64.6,60.8,88,30.19,10.0,NE,11.5,-,N/A,,Overcast,40,2013-07-15 19:15:00
2:35 PM,63.9,60.8,90,30.19,10.0,NE,11.5,-,N/A,,Overcast,40,2013-07-15 19:35:00
2:55 PM,63.0,59.9,90,30.19,10.0,NE,15.0,-,N/A,,Overcast,50,2013-07-15 19:55:00
3:15 PM,63.0,59.5,89,30.19,10.0,NE,13.8,-,N/A,,Overcast,40,2013-07-15 20:15:00
3:55 PM,61.2,60.3,97,30.19,10.0,NE,11.5,-,0.01,,Overcast,40,2013-07-15 20:55:00
4:15 PM,61.0,60.3,97,30.19,10.0,NE,13.8,-,N/A,,Overcast,50,2013-07-15 21:15:00
4:35 PM,60.8,59.9,97,30.19,7.0,NE,16.1,-,N/A,,Overcast,40,2013-07-15 21:35:00
4:55 PM,60.4,59.7,97,30.18,7.0,NE,13.8,-,0.01,,Overcast,50,2013-07-15 21:55:00
5:15 PM,60.4,59.9,98,30.18,10.0,NE,12.7,-,0.01,,Overcast,40,2013-07-15 22:15:00
5:35 PM,60.4,59.5,97,30.18,5.0,NE,13.8,-,0.01,,Overcast,40,2013-07-15 22:35:00
5:55 PM,60.6,59.7,97,30.18,5.0,NE,13.8,-,0.01,,Overcast,40,2013-07-15 22:55:00
6:15 PM,61.0,59.5,95,30.17,10.0,NE,13.8,-,N/A,,Overcast,50,2013-07-15 23:15:00
6:35 PM,60.3,59.5,97,30.18,4.0,NE,10.4,-,N/A,,Overcast,40,2013-07-15 23:35:00
6:55 PM,60.4,59.5,97,30.17,4.0,NNE,10.4,-,N/A,,Overcast,30,2013-07-15 23:55:00
7:15 PM,59.9,59.2,97,30.18,5.0,NE,11.5,-,N/A,,Overcast,40,2013-07-16 00:15:00
7:35 PM,59.4,58.8,98,30.18,10.0,NE,13.8,-,N/A,,Overcast,40,2013-07-16 00:35:00
7:55 PM,59.5,59.0,98,30.19,4.0,NE,11.5,-,N/A,,Overcast,40,2013-07-16 00:55:00
8:15 PM,59.5,59.0,98,30.19,10.0,NE,9.2,-,N/A,,Overcast,40,2013-07-16 01:15:00
10:15 PM,59.0,58.6,99,30.23,10.0,NNE,6.9,-,N/A,,Overcast,30,2013-07-16 03:15:00
10:35 PM,59.0,58.3,97,30.24,10.0,NNE,4.6,-,N/A,,Overcast,30,2013-07-16 03:35:00
10:55 PM,59.0,58.3,97,30.24,10.0,NNE,5.8,-,N/A,,Overcast,30,2013-07-16 03:55:00
11:15 PM,59.0,58.5,98,30.25,10.0,NNE,5.8,-,N/A,,Overcast,20,2013-07-16 04:15:00
11:35 PM,59.0,58.3,97,30.25,10.0,North,6.9,-,N/A,,Overcast,10,2013-07-16 04:35:00
11:55 PM,59.2,58.5,97,30.24,10.0,North,3.5,-,N/A,,Overcast,350,2013-07-16 04:55:00